Weather History for La Ceiba, Honduras

Change the Weather History Date:

Thursday, January 16, 2014

  Actual Average Record
Temperature  
Mean Temperature 65 °F -  
Max Temperature 68 °F 79 °F 86 °F (1998)
Min Temperature 62 °F 66 °F 59 °F (2006)
Growing Degree Days 15 (Base 50)    
Moisture  
Dew Point 61 °F    
Average Humidity 86    
Maximum Humidity 100    
Minimum Humidity 8    
Precipitation  
Precipitation 0.08 in 0.42 in - ()
Sea Level Pressure  
Sea Level Pressure 30.12 in    
Wind  
Wind Speed 6 mph ()    
Max Wind Speed 9 mph    
Max Gust Speed -    
Visibility 5.2 miles    
Events Rain    
Averages and records for this station are not official NWS values.
T = Trace of Precipitation, MM = Missing Value Source: Averaged Metar Reports

Daily Weather History Graph

Daily Weather History Graph

Search for Another Location

Airport:

Trip Planner

Search our weather history database for the weather conditions in past years. The results will help you decide how hot, cold, wet, or windy it might be!

Date:

Astronomy

Jan. 16, 2014 Rise Set
Actual Time 6:18 AM CST 5:36 PM CST
Civil Twilight 5:55 AM CST 5:59 PM CST
Nautical Twilight 5:28 AM CST 6:25 PM CST
Astronomical Twilight 5:02 AM CST 6:51 PM CST
Moon 6:12 PM CST (1/16) 6:24 AM CST (1/16)
Length of Visible Light 12h 04m
Length of Day
11h 18m
Full, 100% of the Moon is Illuminated
Jan 16
Full
Jan 23
Last Quarter
Jan 30
New
Feb 6
First Quarter
Feb 14
Full

Hourly Weather History & Observations

Time (CST) Temp. Dew Point Humidity Pressure Visibility Wind Dir Wind Speed Gust Speed Precip Events Conditions
12:00 AM 65 °F 64 °F 96% 30.17 in 1 mi SSW 9.2 mph - - Rain Rain
12:00 AM 64.4 °F 64.4 °F 100% 30.15 in 1.2 mi SSW 9.2 mph - N/A Rain Rain
1:00 AM 64.4 °F 62.6 °F 94% 30.15 in 1.9 mi South 5.8 mph - N/A Rain Rain
2:00 AM 64.4 °F 62.6 °F 94% 30.15 in 1.9 mi South 5.8 mph - N/A Rain Rain
3:00 AM 64 °F 63 °F 97% 30.14 in 6 mi SSE 5.8 mph - - Rain Light Drizzle
3:00 AM 64.4 °F 62.6 °F 94% 30.12 in 6.2 mi SSE 5.8 mph - N/A   Light Drizzle
4:00 AM 64.4 °F 62.6 °F 94% 30.12 in 6.2 mi South 5.8 mph - N/A   Light Drizzle
5:00 AM 64.4 °F 62.6 °F 94% 30.12 in 6.2 mi South 8.1 mph - N/A   Scattered Clouds
7:00 AM 68.0 °F 66.2 °F 94% 30.15 in 6.2 mi South 6.9 mph - N/A   Scattered Clouds
8:00 AM 68.0 °F 62.6 °F 83% 30.15 in 2.5 mi South 6.9 mph - N/A Rain Light Rain
9:00 AM 65 °F 62 °F 89% 30.18 in 2 mi South 6.9 mph - - Rain Light Drizzle
9:00 AM 66.2 °F 62.6 °F 88% 30.18 in 1.9 mi South 6.9 mph - N/A   Drizzle
10:00 AM 66.2 °F 62.6 °F 88% 30.18 in 2.5 mi South 5.8 mph - N/A   Overcast
11:00 AM 66.2 °F 62.6 °F 88% 30.15 in 6.2 mi South 8.1 mph - N/A   Overcast
12:00 PM 67 °F 63 °F 82% 30.15 in 6 mi South 5.8 mph - - Rain Light Drizzle
12:00 PM 68.0 °F 62.6 °F 83% 30.12 in 6.2 mi South 5.8 mph - N/A   Overcast
1:00 PM 68.0 °F 62.6 °F 83% 30.12 in 6.2 mi SSW 9.2 mph - N/A   Overcast
2:00 PM 68.0 °F 62.6 °F 83% 30.09 in 6.2 mi SSW 6.9 mph - N/A   Mostly Cloudy
3:00 PM 67 °F 62 °F 77% 30.08 in 6 mi SSE 6.9 mph - -   Partly Cloudy
3:00 PM 66.2 °F 3.2 °F 8% 30.06 in 6.2 mi SSE 6.9 mph - N/A   Mostly Cloudy
4:00 PM 68.0 °F 60.8 °F 78% 30.06 in 6.2 mi SSW 4.6 mph - N/A   Mostly Cloudy
5:00 PM 68.0 °F 60.8 °F 78% 30.06 in 6.2 mi South 5.8 mph - N/A   Mostly Cloudy
6:00 PM 67 °F 66 °F 96% 30.09 in 6 mi South 4.6 mph - -   Haze
6:00 PM 66.2 °F 62.6 °F 88% 30.06 in 6.2 mi SSE 4.6 mph - N/A   Mostly Cloudy
7:00 PM 66.2 °F 62.6 °F 88% 30.09 in 6.2 mi South 4.6 mph - N/A   Mostly Cloudy
8:00 PM 66.2 °F 62.6 °F 88% 30.09 in 6.2 mi SSE 5.8 mph - N/A   Mostly Cloudy
9:00 PM 66 °F 63 °F 85% 30.12 in 12 mi SSE 4.6 mph - -   Haze
9:00 PM 66.2 °F 62.6 °F 88% 30.12 in 6.2 mi SSE 4.6 mph - N/A   Mostly Cloudy
10:00 PM 62.6 °F 60.8 °F 94% 30.12 in 6.2 mi SSE 4.6 mph - N/A   Partly Cloudy
11:00 PM 62.6 °F 60.8 °F 94% 30.09 in 6.2 mi Calm Calm - N/A   Partly Cloudy